| time (UTC) | temp F | wind direction | speed knots | gust knots | rain 1hr in | rain 24hr in | rain mn in | humidity % | barometer mb |
| 20260510224120 | 75 | 212 | 7.8 | 12.2 | 0.00 | 0.00 | 0.00 | 34 | 1015.1 |
| 20260510223116 | 76 | 188 | 6.1 | 7.8 | 0.00 | 0.00 | 0.00 | 32 | 1015.1 |
| 20260510222153 | 75 | 205 | 5.2 | 9.6 | 0.00 | 0.00 | 0.00 | 32 | 1015.2 |
| 20260510221128 | 75 | 218 | 5.2 | 10.4 | 0.00 | 0.00 | 0.00 | 32 | 1015.2 |
| 20260510220128 | 75 | 178 | 7.0 | 7.8 | 0.00 | 0.00 | 0.00 | 32 | 1015.1 |
| 20260510215122 | 76 | 184 | 7.0 | 10.4 | 0.00 | 0.00 | 0.00 | 32 | 1015.3 |
| 20260510214117 | 76 | 205 | 4.3 | 7.0 | 0.00 | 0.00 | 0.00 | 31 | 1015.6 |
| 20260510213134 | 76 | 239 | 3.5 | 3.5 | 0.00 | 0.00 | 0.00 | 31 | 1015.4 |
| 20260510212130 | 76 | 197 | 3.5 | 5.2 | 0.00 | 0.00 | 0.00 | 31 | 1015.5 |
| 20260510211146 | 76 | 211 | 7.0 | 9.6 | 0.00 | 0.00 | 0.00 | 29 | 1015.5 |
| 20260510210142 | 76 | 205 | 3.5 | 6.1 | 0.00 | 0.00 | 0.00 | 31 | 1015.8 |
| 20260510205118 | 75 | 246 | 4.3 | 7.0 | 0.00 | 0.00 | 0.00 | 29 | 1015.8 |
| 20260510204135 | 76 | 214 | 4.3 | 7.8 | 0.00 | 0.00 | 0.00 | 30 | 1015.7 |
| 20260510203131 | 76 | 283 | 2.6 | 3.5 | 0.00 | 0.00 | 0.00 | 29 | 1015.8 |
| 20260510202127 | 75 | 246 | 3.5 | 7.0 | 0.00 | 0.00 | 0.00 | 29 | 1015.8 |
| 20260510201123 | 75 | 221 | 2.6 | 4.3 | 0.00 | 0.00 | 0.00 | 31 | 1015.6 |
| 20260510200120 | 75 | 348 | 3.5 | 5.2 | 0.00 | 0.00 | 0.00 | 31 | 1015.6 |
| 20260510195118 | 73 | 247 | 0.9 | 1.7 | 0.00 | 0.00 | 0.00 | 34 | 1015.8 |
| 20260510194132 | 73 | 198 | 1.7 | 3.5 | 0.00 | 0.00 | 0.00 | 31 | 1015.9 |
| 20260510193148 | 74 | 302 | 1.7 | 5.2 | 0.00 | 0.00 | 0.00 | 34 | 1015.9 |
| 20260510192125 | 74 | 345 | 2.6 | 7.0 | 0.00 | 0.00 | 0.00 | 35 | 1016.1 |
| 20260510191221 | 72 | 317 | 0.9 | 3.5 | 0.00 | 0.00 | 0.00 | 36 | 1016.2 |
| 20260510190119 | 72 | 311 | 2.6 | 5.2 | 0.00 | 0.00 | 0.00 | 38 | 1016.3 |
| 20260510185133 | 71 | 342 | 2.6 | 5.2 | 0.00 | 0.00 | 0.00 | 38 | 1016.4 |
| 20260510184150 | 71 | 322 | 1.7 | 3.5 | 0.00 | 0.00 | 0.00 | 38 | 1016.3 |
| 20260510183125 | 71 | 353 | 3.5 | 5.2 | 0.00 | 0.00 | 0.00 | 39 | 1016.4 |
| 20260510182121 | 71 | 323 | 4.3 | 6.1 | 0.00 | 0.00 | 0.00 | 39 | 1016.4 |
| 20260510181123 | 70 | 326 | 2.6 | 5.2 | 0.00 | 0.00 | 0.00 | 39 | 1016.4 |
| 20260510180135 | 71 | 339 | 5.2 | 5.2 | 0.00 | 0.00 | 0.00 | 39 | 1016.4 |
| 20260510175131 | 70 | 23 | 2.6 | 4.3 | 0.00 | 0.00 | 0.00 | 39 | 1016.3 |
| 20260510174126 | 69 | 45 | 2.6 | 3.5 | 0.00 | 0.00 | 0.00 | 40 | 1016.2 |
| 20260510173123 | 68 | 338 | 2.6 | 3.5 | 0.00 | 0.00 | 0.00 | 41 | 1016.7 |
| 20260510172119 | 67 | 50 | 2.6 | 4.3 | 0.00 | 0.00 | 0.00 | 44 | 1016.8 |
| 20260510171135 | 66 | 85 | 2.6 | 5.2 | 0.00 | 0.00 | 0.00 | 44 | 1016.5 |
| 20260510170132 | 67 | 30 | 3.5 | 4.3 | 0.00 | 0.00 | 0.00 | 42 | 1016.7 |
| 20260510165150 | 65 | 39 | 1.7 | 2.6 | 0.00 | 0.00 | 0.00 | 40 | 1016.6 |
| 20260510164124 | 64 | 138 | 0.0 | 0.9 | 0.00 | 0.00 | 0.00 | 41 | 1016.7 |
| 20260510163141 | 64 | 46 | 0.9 | 1.7 | 0.00 | 0.00 | 0.00 | 42 | 1016.9 |
| 20260510162117 | 64 | 295 | 0.9 | 2.6 | 0.00 | 0.00 | 0.00 | 43 | 1016.7 |
| 20260510161133 | 64 | 5 | 3.5 | 4.3 | 0.00 | 0.00 | 0.00 | 41 | 1016.6 |
| 20260510160130 | 64 | 12 | 4.3 | 5.2 | 0.00 | 0.00 | 0.00 | 42 | 1017.0 |
| 20260510155126 | 64 | 330 | 4.3 | 5.2 | 0.00 | 0.00 | 0.00 | 44 | 1016.9 |
| 20260510154121 | 64 | 339 | 4.3 | 6.1 | 0.00 | 0.00 | 0.00 | 44 | 1016.9 |
| 20260510153117 | 63 | 351 | 2.6 | 3.5 | 0.00 | 0.00 | 0.00 | 43 | 1016.8 |
| 20260510152134 | 63 | 18 | 3.5 | 4.3 | 0.00 | 0.00 | 0.00 | 45 | 1016.9 |
| 20260510151130 | 62 | 350 | 3.5 | 5.2 | 0.00 | 0.00 | 0.00 | 45 | 1016.5 |
| 20260510150126 | 62 | 1 | 2.6 | 3.5 | 0.00 | 0.00 | 0.00 | 46 | 1016.7 |
| 20260510145142 | 60 | 324 | 2.6 | 3.5 | 0.00 | 0.00 | 0.00 | 50 | 1016.8 |
| 20260510144118 | 60 | 333 | 2.6 | 3.5 | 0.00 | 0.00 | 0.00 | 50 | 1017.0 |
| 20260510143135 | 60 | 323 | 3.5 | 5.2 | 0.00 | 0.00 | 0.00 | 49 | 1016.8 |
| 20260510142131 | 59 | 311 | 3.5 | 5.2 | 0.00 | 0.00 | 0.00 | 50 | 1016.9 |
| 20260510141127 | 58 | 321 | 3.5 | 4.3 | 0.00 | 0.00 | 0.00 | 51 | 1016.9 |
| 20260510140123 | 58 | 322 | 4.3 | 5.2 | 0.00 | 0.00 | 0.00 | 51 | 1016.8 |
| 20260510135119 | 58 | 352 | 4.3 | 5.2 | 0.00 | 0.00 | 0.00 | 53 | 1016.6 |
| 20260510134136 | 57 | 318 | 4.3 | 5.2 | 0.00 | 0.00 | 0.00 | 53 | 1016.3 |
| 20260510133132 | 56 | 280 | 0.9 | 1.7 | 0.00 | 0.00 | 0.00 | 58 | 1016.4 |
| 20260510132128 | 54 | 221 | 0.9 | 1.7 | 0.00 | 0.00 | 0.00 | 57 | 1016.4 |
| 20260510131124 | 55 | 297 | 0.9 | 1.7 | 0.00 | 0.00 | 0.00 | 55 | 1016.5 |
| 20260510130122 | 55 | 289 | 1.7 | 2.6 | 0.00 | 0.00 | 0.00 | 57 | 1016.2 |
| 20260510125116 | 54 | 257 | 1.7 | 1.7 | 0.00 | 0.00 | 0.00 | 59 | 1016.2 |
| 20260510124133 | 54 | 251 | 0.9 | 1.7 | 0.00 | 0.00 | 0.00 | 59 | 1016.3 |
| 20260510123129 | 54 | 278 | 1.7 | 2.6 | 0.00 | 0.00 | 0.00 | 60 | 1016.3 |
| 20260510122146 | 53 | 246 | 1.7 | 2.6 | 0.00 | 0.00 | 0.00 | 59 | 1016.4 |
| 20260510121122 | 53 | 231 | 0.9 | 1.7 | 0.00 | 0.00 | 0.00 | 60 | 1016.1 |
| 20260510120118 | 53 | 273 | 1.7 | 1.7 | 0.00 | 0.00 | 0.00 | 60 | 1016.3 |
| 20260510115134 | 54 | 254 | 1.7 | 1.7 | 0.00 | 0.00 | 0.00 | 58 | 1016.6 |
| 20260510114130 | 54 | 207 | 1.7 | 1.7 | 0.00 | 0.00 | 0.00 | 57 | 1016.5 |
| 20260510113126 | 55 | 224 | 0.9 | 1.7 | 0.00 | 0.00 | 0.00 | 57 | 1016.5 |
| 20260510112123 | 55 | 235 | 0.9 | 1.7 | 0.00 | 0.00 | 0.00 | 55 | 1016.4 |
| 20260510111119 | 57 | 269 | 0.9 | 0.9 | 0.00 | 0.00 | 0.00 | 52 | 1016.5 |
| 20260510110136 | 56 | 281 | 1.7 | 1.7 | 0.00 | 0.00 | 0.00 | 51 | 1016.5 |
| 20260510105151 | 55 | 354 | 0.9 | 1.7 | 0.00 | 0.00 | 0.00 | 52 | 1016.6 |
| 20260510104127 | 55 | 359 | 1.7 | 2.6 | 0.00 | 0.00 | 0.00 | 52 | 1016.6 |
| 20260510103123 | 57 | 299 | 5.2 | 6.1 | 0.00 | 0.00 | 0.00 | 49 | 1016.6 |
| 20260510102120 | 56 | 301 | 5.2 | 6.1 | 0.00 | 0.00 | 0.00 | 50 | 1016.5 |
| 20260510101136 | 56 | 310 | 3.5 | 4.3 | 0.00 | 0.00 | 0.00 | 50 | 1016.6 |
| 20260510100134 | 57 | 338 | 2.6 | 3.5 | 0.00 | 0.00 | 0.00 | 49 | 1016.6 |
| 20260510095128 | 57 | 327 | 0.9 | 1.7 | 0.00 | 0.00 | 0.00 | 50 | 1016.4 |
| 20260510094124 | 57 | 357 | 2.6 | 3.5 | 0.00 | 0.00 | 0.00 | 51 | 1016.7 |
| 20260510093120 | 56 | 294 | 0.9 | 1.7 | 0.00 | 0.00 | 0.00 | 53 | 1016.7 |
| 20260510092116 | 57 | 0.0 | 0.0 | 0.00 | 0.00 | 0.00 | 52 | 1016.8 | |
| 20260510091133 | 57 | 329 | 0.0 | 0.9 | 0.00 | 0.00 | 0.00 | 53 | 1017.0 |
| 20260510090129 | 57 | 75 | 0.9 | 1.7 | 0.00 | 0.00 | 0.00 | 53 | 1016.8 |
| 20260510085125 | 58 | 290 | 1.7 | 1.7 | 0.00 | 0.00 | 0.00 | 52 | 1016.9 |
| 20260510084121 | 59 | 298 | 3.5 | 3.5 | 0.00 | 0.00 | 0.00 | 49 | 1017.1 |
| 20260510083118 | 58 | 318 | 2.6 | 2.6 | 0.00 | 0.00 | 0.00 | 50 | 1017.0 |
| 20260510082134 | 58 | 326 | 2.6 | 3.5 | 0.00 | 0.00 | 0.00 | 50 | 1017.1 |
| 20260510081130 | 60 | 340 | 2.6 | 2.6 | 0.00 | 0.00 | 0.00 | 46 | 1017.2 |
| 20260510080126 | 59 | 274 | 1.7 | 1.7 | 0.00 | 0.00 | 0.00 | 46 | 1017.2 |
| 20260510075122 | 61 | 257 | 0.9 | 1.7 | 0.00 | 0.00 | 0.00 | 45 | 1017.1 |
| 20260510074139 | 60 | 232 | 0.9 | 1.7 | 0.00 | 0.00 | 0.00 | 46 | 1017.4 |
| 20260510073155 | 61 | 251 | 1.7 | 1.7 | 0.00 | 0.00 | 0.00 | 44 | 1017.5 |
| 20260510072131 | 60 | 232 | 1.7 | 1.7 | 0.00 | 0.00 | 0.00 | 45 | 1017.3 |
| 20260510071150 | 61 | 220 | 0.9 | 1.7 | 0.00 | 0.00 | 0.00 | 43 | 1017.4 |
| 20260510070124 | 61 | 249 | 1.7 | 1.7 | 0.00 | 0.00 | 0.00 | 43 | 1017.5 |
| 20260510065120 | 62 | 245 | 1.7 | 1.7 | 0.00 | 0.00 | 0.00 | 42 | 1017.5 |
| 20260510064120 | 62 | 244 | 1.7 | 1.7 | 0.00 | 0.00 | 0.00 | 42 | 1017.4 |
| 20260510063152 | 62 | 254 | 0.9 | 1.7 | 0.00 | 0.00 | 0.00 | 41 | 1017.3 |
| 20260510062128 | 62 | 229 | 1.7 | 1.7 | 0.00 | 0.00 | 0.00 | 43 | 1017.6 |
| 20260510061124 | 63 | 259 | 0.9 | 1.7 | 0.00 | 0.00 | 0.00 | 40 | 1017.3 |
| 20260510060120 | 63 | 260 | 0.9 | 0.9 | 0.00 | 0.00 | 0.00 | 40 | 1017.3 |
| 20260510055316 | 63 | 258 | 0.9 | 1.7 | 0.00 | 0.00 | 0.00 | 41 | 1017.5 |
| 20260510053831 | 63 | 274 | 0.9 | 1.7 | 0.00 | 0.00 | 0.00 | 42 | 1017.7 |
| 20260510053533 | 63 | 260 | 0.9 | 1.7 | 0.00 | 0.00 | 0.00 | 42 | 1017.7 |
| 20260510053210 | 63 | 259 | 1.7 | 1.7 | 0.00 | 0.00 | 0.00 | 44 | 1017.7 |
| 20260510052128 | 64 | 254 | 1.7 | 2.6 | 0.00 | 0.00 | 0.00 | 43 | 1017.5 |
| 20260510041634 | 66 | 224 | 0.9 | 1.7 | 0.00 | 0.00 | 0.00 | 40 | 1018.1 |
| 20260510040701 | 66 | 220 | 0.9 | 1.7 | 0.00 | 0.00 | 0.00 | 40 | 1018.0 |
| 20260510035624 | 67 | 222 | 0.9 | 1.7 | 0.00 | 0.00 | 0.00 | 39 | 1017.8 |
| 20260510034624 | 68 | 228 | 0.9 | 1.7 | 0.00 | 0.00 | 0.00 | 38 | 1017.9 |
| 20260510033623 | 69 | 225 | 0.9 | 1.7 | 0.00 | 0.00 | 0.00 | 36 | 1017.8 |
| 20260510032642 | 70 | 194 | 0.9 | 1.7 | 0.00 | 0.00 | 0.00 | 34 | 1017.9 |
| 20260510031656 | 70 | 163 | 1.7 | 2.6 | 0.00 | 0.00 | 0.00 | 33 | 1018.0 |
| 20260510030653 | 70 | 158 | 0.9 | 2.6 | 0.00 | 0.00 | 0.00 | 33 | 1018.0 |
| 20260510025635 | 71 | 124 | 1.7 | 2.6 | 0.00 | 0.00 | 0.00 | 32 | 1018.0 |
| 20260510024633 | 72 | 91 | 1.7 | 3.5 | 0.00 | 0.00 | 0.00 | 31 | 1017.6 |
| 20260510023627 | 72 | 0.0 | 1.7 | 0.00 | 0.00 | 0.00 | 30 | 1018.0 | |
| 20260510022628 | 73 | 61 | 3.5 | 4.3 | 0.00 | 0.00 | 0.00 | 28 | 1017.8 |
| 20260510021648 | 73 | 55 | 2.6 | 3.5 | 0.00 | 0.00 | 0.00 | 29 | 1018.0 |
| 20260510020624 | 73 | 61 | 4.3 | 6.1 | 0.00 | 0.00 | 0.00 | 27 | 1018.1 |
| 20260510015643 | 74 | 46 | 2.6 | 4.3 | 0.00 | 0.00 | 0.00 | 28 | 1017.9 |
| 20260510014641 | 74 | 40 | 2.6 | 2.6 | 0.00 | 0.00 | 0.00 | 29 | 1018.3 |
| 20260510013636 | 74 | 67 | 3.5 | 5.2 | 0.00 | 0.00 | 0.00 | 28 | 1018.3 |
| 20260510012638 | 74 | 50 | 5.2 | 7.8 | 0.00 | 0.00 | 0.00 | 30 | 1018.2 |
| 20260510011716 | 74 | 61 | 2.6 | 5.2 | 0.00 | 0.00 | 0.00 | 30 | 1018.5 |
| 20260510010630 | 75 | 50 | 5.2 | 7.0 | 0.00 | 0.00 | 0.00 | 30 | 1018.6 |
| 20260510005632 | 75 | 59 | 6.1 | 11.3 | 0.00 | 0.00 | 0.00 | 30 | 1018.7 |
| 20260510004628 | 75 | 67 | 3.5 | 5.2 | 0.00 | 0.00 | 0.00 | 31 | 1018.7 |
| 20260510003622 | 75 | 79 | 2.6 | 5.2 | 0.00 | 0.00 | 0.00 | 30 | 1018.6 |
| 20260510002618 | 75 | 110 | 1.7 | 3.5 | 0.00 | 0.00 | 0.00 | 30 | 1018.8 |
| 20260510001640 | 76 | 44 | 5.2 | 8.7 | 0.00 | 0.00 | 0.00 | 30 | 1018.9 |
| 20260510000639 | 76 | 25 | 5.2 | 7.8 | 0.00 | 0.00 | 0.00 | 29 | 1018.9 |
| 20260509235632 | 76 | 64 | 5.2 | 7.8 | 0.00 | 0.00 | 0.00 | 28 | 1019.0 |
| 20260509234629 | 76 | 67 | 2.6 | 3.5 | 0.00 | 0.00 | 0.00 | 29 | 1019.0 |
| 20260509233651 | 75 | 57 | 2.6 | 4.3 | 0.00 | 0.00 | 0.00 | 29 | 1019.3 |
| 20260509232631 | 76 | 52 | 6.1 | 8.7 | 0.00 | 0.00 | 0.00 | 29 | 1019.3 |
| 20260509231621 | 75 | 94 | 2.6 | 4.3 | 0.00 | 0.00 | 0.00 | 31 | 1019.0 |
| 20260509230703 | 76 | 46 | 7.0 | 9.6 | 0.00 | 0.00 | 0.00 | 30 | 1019.4 |
| 20260509225617 | 75 | 54 | 7.8 | 9.6 | 0.00 | 0.00 | 0.00 | 31 | 1019.4 |